Meteo Giornale » Osservazioni meteo Francia » Nizza

ore: 21:30 - Osservazioni Meteo Nizza
Lat. 43° 39' N Lon. 7° 12' E Alt. 4 metri s.l.m.

nuvoloso Europe/Paris

17 °C

Nuvoloso

Temp. 24 Ore

16 °C

20 °C

Nord

3.7 Km/h

Dew point 15 °C

Umidità 88 %

Visibilità  10 Km

Il sole sorge alle ore 05:55

Il sole tramonta alle ore 21:01

Data e Ora Cielo e Fenomeni T °C DP °C Um. % Pres. hPa Vis. km Vento km/h
Oggi h: 21:30 nuvoloso Nuvoloso 17 15 88 1014 10 N 3.7
Oggi h: 21:00 molto_nuvoloso Molto Nuvoloso 17 15 88 1014 10 N 3.7
Oggi h: 20:30 molto_nuvoloso Molto Nuvoloso 18 15 82 1014 10 N 1.8
Oggi h: 20:00 molto_nuvoloso Molto Nuvoloso 18 15 82 1014 10 N 5.5
Oggi h: 19:30 sereno Sereno 18 15 82 1013 10 N 5.5
Oggi h: 19:00 sereno Sereno 19 15 77 1013 10 N 5.5
Oggi h: 18:30 sereno Sereno 19 15 77 1013 10 S/SE 9.3
Oggi h: 18:00 sereno Sereno 19 15 77 1013 10 N 5.5
Oggi h: 17:30 sereno Sereno 20 15 72 1013 10 S 7.4
Oggi h: 17:00 sereno Sereno 20 15 72 1013 10 S/SE 9.3
Oggi h: 16:30 sereno Sereno 20 15 72 1014 10 SE 9.3
Oggi h: 16:00 sereno Sereno 20 14 68 1014 10 E 9.3
Oggi h: 15:30 sereno Sereno 20 15 72 1014 10 E 7.4
Oggi h: 15:00 sereno Sereno 20 15 72 1015 10 E/SE 9.3
Oggi h: 14:30 sereno Sereno 20 15 72 1014 10 E/SE 11.1
Oggi h: 14:00 sereno Sereno 19 15 77 1015 10 E/SE 11.1
Oggi h: 13:30 sereno Sereno 19 15 77 1015 10 E/SE 11.1
Oggi h: 13:00 sereno Sereno 19 15 77 1015 10 E/SE 13
Oggi h: 12:30 sereno Sereno 19 15 77 1015 10 E 9.3
Oggi h: 12:00 sereno Sereno 19 15 77 1015 10 E/SE 13
Oggi h: 11:30 sereno Sereno 19 14 72 1015 10 E 16.7
Oggi h: 11:00 sereno Sereno 18 15 82 1015 10 E 13
Oggi h: 10:30 sereno Sereno 18 14 77 1015 10 E 16.7
Oggi h: 10:00 sereno Sereno 19 14 72 1015 10 E 14.8
Oggi h: 09:30 sereno Sereno 19 14 72 1014 10 E 13
Oggi h: 09:00 molto_nuvoloso Molto Nuvoloso 19 14 72 1014 10 E 11.1
Oggi h: 08:30 coperto Coperto 18 13 72 1014 10 E/NE 7.4
Oggi h: 08:00 coperto Coperto 17 12 72 1014 10 NO 7.4
Oggi h: 07:00 molto_nuvoloso Molto Nuvoloso 16 13 82 1014 10 N/NO 7.4
Oggi h: 06:30 molto_nuvoloso Molto Nuvoloso 16 13 82 1014 10 N/NO 7.4
Oggi h: 06:00 molto_nuvoloso Molto Nuvoloso 16 14 87 1014 10 NO 7.4
Oggi h: 05:30 molto_nuvoloso Molto Nuvoloso 17 14 82 1013 10 N 5.5
Oggi h: 05:00 molto_nuvoloso Molto Nuvoloso 17 14 82 1013 10 N 1.8
Oggi h: 04:30 molto_nuvoloso Molto Nuvoloso 17 14 82 1014 10 N 0
Oggi h: 04:00 molto_nuvoloso Molto Nuvoloso 16 14 87 1013 10 N 0
Oggi h: 03:30 molto_nuvoloso Molto Nuvoloso 16 14 87 1013 10 N 3.7
Oggi h: 03:00 molto_nuvoloso Molto Nuvoloso 17 14 82 1013 10 N 3.7
Oggi h: 02:30 molto_nuvoloso Molto Nuvoloso 17 14 82 1013 10 N 0
Oggi h: 01:30 molto_nuvoloso Molto Nuvoloso 17 14 82 1013 10 N 3.7
Oggi h: 01:00 molto_nuvoloso Molto Nuvoloso 17 14 82 1014 10 N 1.8
Oggi h: 00:30 molto_nuvoloso Molto Nuvoloso 17 14 82 1014 10 N 0
Oggi h: 00:00 molto_nuvoloso Molto Nuvoloso 17 14 82 1014 10 N 0
Ieri h: 23:36 molto_nuvoloso Molto Nuvoloso 17 13 77 1014 10 N 0